Location: Dieppe
(49.9230°N, 1.0775°E)
Time: 10:01:47
(UTC+02:00)

ISS - Visible Passes

Search period start: 19 July 2018 00:00
Search period end: 29 July 2018 00:00
Orbit: 402 x 408 km, 51.6° (Epoch: 19 July)

Date Brightness Start Highest point End Pass type
(mag) Time Alt. Az. Time Alt. Az. Time Alt. Az.
19 Jul -3.9 01:30:34 19° WSW 01:32:46 86° NNW 01:36:05 10° ENE visible
19 Jul -3.4 03:06:08 10° WNW 03:09:25 63° N 03:12:42 10° E visible
19 Jul -3.8 04:42:42 10° WNW 04:45:57 60° SSW 04:49:13 10° ESE visible
19 Jul -2.3 23:02:21 10° S 23:04:36 17° SE 23:06:52 10° E visible
20 Jul -4.0 00:37:24 10° WSW 00:40:41 71° SSE 00:43:58 10° ENE visible
20 Jul -3.4 02:13:59 10° W 02:17:15 62° N 02:20:32 10° E visible
20 Jul -3.9 03:50:34 10° WNW 03:53:53 84° SSW 03:57:11 10° ESE visible
20 Jul -3.7 23:45:27 10° SW 23:48:36 48° SSE 23:51:49 10° ENE visible
21 Jul -3.5 01:21:48 10° W 01:25:05 67° N 01:28:23 10° ENE visible
21 Jul -3.7 02:58:26 10° WNW 03:01:45 76° NNE 03:05:03 10° E visible
21 Jul -3.2 04:35:04 10° W 04:38:05 34° SSW 04:41:07 10° SE visible
21 Jul -3.1 22:53:39 10° SSW 22:56:36 31° SSE 22:59:34 10° E visible
22 Jul -3.8 00:29:38 10° W 00:32:55 79° NNW 00:36:13 10° ENE visible
22 Jul -3.5 02:06:18 10° WNW 02:09:34 65° N 02:12:51 10° E visible
22 Jul -3.8 03:42:51 10° WNW 03:46:04 52° SSW 03:49:16 10° SE visible
22 Jul -1.8 05:20:42 10° WSW 05:21:58 12° SW 05:23:13 10° SSW visible
22 Jul -3.9 23:37:29 10° WSW 23:40:46 80° SSE 23:44:03 10° ENE visible
23 Jul -3.4 01:14:06 10° W 01:17:22 62° N 01:20:39 10° E visible
23 Jul -3.5 02:50:40 10° WNW 02:53:16 51° W 02:53:16 51° W visible
23 Jul -3.8 22:45:26 10° SW 22:48:38 56° SSE 22:51:53 10° ENE visible
24 Jul -3.4 00:21:54 10° W 00:25:09 64° N 00:28:26 10° ENE visible
24 Jul -3.8 01:58:30 10° WNW 02:01:39 78° NW 02:01:39 78° NW visible
24 Jul -3.6 23:29:39 10° W 23:32:57 74° N 23:36:14 10° ENE visible
25 Jul -3.6 01:06:19 10° WNW 01:09:36 68° N 01:10:40 39° E visible
25 Jul -1.3 02:42:52 10° WNW 02:43:16 13° W 02:43:16 13° W visible
25 Jul -3.8 22:37:28 10° WSW 22:40:44 89° SSE 22:44:02 10° ENE visible
26 Jul -3.4 00:14:06 10° W 00:17:22 62° N 00:19:52 16° E visible
26 Jul -2.4 01:50:39 10° WNW 01:52:29 30° W 01:52:29 30° W visible
26 Jul -3.4 23:21:52 10° W 23:25:07 62° N 23:28:24 10° E visible
27 Jul -4.0 00:58:27 10° WNW 01:01:45 90° NNW 01:01:47 88° ESE visible
27 Jul -3.5 22:29:36 10° W 22:32:51 69° N 22:36:08 10° ENE visible
28 Jul -3.7 00:06:14 10° WNW 00:09:31 73° N 00:11:07 27° E visible
28 Jul -1.5 01:42:48 10° W 01:43:45 17° W 01:43:45 17° W visible
28 Jul -3.4 23:13:59 10° WNW 23:17:15 64° N 23:20:30 10° E visible
